Location: Amsterdam
(30.7274°N, 84.4357°W)
Time: 19:02:20
(UTC+00:00)

Vanguard 2 - All Passes

Search period start: 18 February 2026 00:00
Search period end: 28 February 2026 00:00
Orbit: 553 x 2897 km, 32.9° (Epoch: 17 February)

Date Brightness Start Highest point End Pass type
(mag) Time Alt. Az. Time Alt. Az. Time Alt. Az.
18 Feb - 08:18:22 10° SSW 08:24:53 20° SSE 08:29:40 10° ESE visible
18 Feb - 10:26:36 10° SW 10:33:35 54° SSE 10:38:10 10° E visible
18 Feb - 12:36:32 10° W 12:41:29 69° N 12:45:26 10° ENE daylight
18 Feb - 14:45:17 10° WNW 14:49:16 87° N 14:53:36 10° ESE daylight
18 Feb - 16:53:11 10° W 16:56:55 28° SSW 17:01:46 10° SE daylight
19 Feb - 08:29:07 10° SSW 08:37:01 28° SSE 08:42:24 10° E visible
19 Feb - 10:38:28 10° WSW 10:45:36 70° SSE 10:50:13 10° E visible
19 Feb - 12:48:41 10° W 12:53:33 65° N 12:57:29 10° E daylight
19 Feb - 14:57:18 10° W 15:01:16 73° SSW 15:05:36 10° ESE daylight
19 Feb - 17:05:43 10° WSW 17:08:56 20° SSW 17:12:54 10° SSE daylight
20 Feb - 06:34:22 10° S 06:39:27 14° SSE 06:43:41 10° SE night (unlit)
20 Feb - 08:40:16 10° SW 08:49:07 37° SSE 08:54:48 10° E visible
20 Feb - 10:50:29 10° WSW 10:57:37 85° SSE 11:02:14 10° ENE visible
20 Feb - 13:00:48 10° W 13:05:37 66° N 13:09:33 10° E daylight
20 Feb - 15:09:23 10° W 15:13:14 53° SSW 15:17:29 10° ESE daylight
20 Feb - 17:18:53 10° SW 17:20:58 13° SSW 17:23:19 10° S daylight
21 Feb - 06:43:42 10° SSW 06:51:39 20° SSE 06:57:36 10° ESE night (unlit)
21 Feb - 08:51:43 10° SW 09:01:11 48° SSE 09:07:02 10° E visible
21 Feb - 11:02:36 10° W 11:09:39 82° NNW 11:14:14 10° ENE visible
21 Feb - 13:12:53 10° WNW 13:17:41 73° N 13:21:37 10° E daylight
21 Feb - 15:21:32 10° W 15:25:12 36° SSW 15:29:13 10° SE daylight
22 Feb - 06:54:01 10° SSW 07:03:48 26° SSE 07:10:36 10° E night (unlit)
22 Feb - 09:03:24 10° WSW 09:13:14 60° SSE 09:19:07 10° E visible
22 Feb - 11:14:46 10° W 11:21:42 74° N 11:26:14 10° ENE visible
22 Feb - 13:24:58 10° WNW 13:29:43 85° NNE 13:33:40 10° E daylight
22 Feb - 15:33:50 10° W 15:37:07 25° SSW 15:40:41 10° SSE daylight
23 Feb - 05:00:53 10° SSE 05:05:24 12° SSE 05:09:26 10° SE night (unlit)
23 Feb - 07:04:49 10° SSW 07:15:55 34° SSE 07:23:12 10° E visible
23 Feb - 09:15:16 10° WSW 09:25:16 73° SSE 09:31:10 10° ENE visible
23 Feb - 11:26:57 10° W 11:33:46 70° N 11:38:16 10° E visible
23 Feb - 13:37:01 10° WNW 13:41:43 76° SSW 13:45:38 10° ESE daylight
23 Feb - 15:46:29 10° WSW 15:49:02 16° SSW 15:51:43 10° SSE daylight
24 Feb - 05:09:04 10° S 05:17:36 18° SSE 05:24:28 10° ESE night (unlit)
24 Feb - 07:15:59 10° SW 07:28:00 43° SSE 07:35:34 10° E visible
24 Feb - 09:27:18 10° WSW 09:37:18 85° SSE 09:43:11 10° ENE visible
24 Feb - 11:39:08 10° W 11:45:51 71° N 11:50:18 10° E visible
24 Feb - 13:49:07 10° W 13:53:41 56° SSW 13:57:32 10° ESE daylight
25 Feb - 05:18:48 10° SSW 05:29:44 24° SSE 05:37:58 10° ESE night (unlit)
25 Feb - 07:27:25 10° SW 07:40:04 53° SSE 07:47:45 10° E visible
25 Feb - 09:39:25 10° WSW 09:49:21 86° N 09:55:11 10° ENE visible
25 Feb - 11:51:17 10° W 11:57:55 75° N 12:02:21 10° E daylight
25 Feb - 14:01:15 10° W 14:05:34 39° SSW 14:09:16 10° SE daylight
26 Feb - 05:29:12 10° SSW 05:41:50 31° SSE 05:50:53 10° E night (unlit)
26 Feb - 07:39:04 10° SW 07:52:07 64° SSE 07:59:51 10° E visible
26 Feb - 09:51:37 10° W 10:01:24 79° N 10:07:11 10° E visible
26 Feb - 12:03:24 10° WNW 12:09:58 85° N 12:14:22 10° E daylight
26 Feb - 14:13:34 10° W 14:17:24 27° SSW 14:20:46 10° SSE daylight
27 Feb - 03:35:37 10° S 03:42:52 14° SE 03:49:20 10° ESE visible
27 Feb - 05:40:01 10° SSW 05:53:54 39° SSE 06:03:26 10° E night (unlit)
27 Feb - 07:50:56 10° WSW 08:04:08 75° SSE 08:11:53 10° ENE visible
27 Feb - 10:03:51 10° W 10:13:29 76° N 10:19:12 10° E visible
27 Feb - 12:15:30 10° WNW 12:21:59 81° SSW 12:26:21 10° ESE daylight
27 Feb - 14:26:08 10° WSW 14:29:10 18° SW 14:31:55 10° S daylight
